Presure
141 132 231 258 169 170 258 123 241 247 258 137 166 177 261 149 240 131 224 144 118 110 106 115 124 130 138 118 118 150 185 115 150 132 148 160 103 116 116 117 121 137 147 173 123
191 140 240 147 167 310 211 268 179 259 122 123 250 126 128 134 124 266 254 260 113 184 119 125 135 118 148 123 172 127 155 124 163 164 151 163 126 118 141 108 116 122 131 120 116
217 131 312 303 292 300 345 357 280 192 234 242 246 151 247 256 252 257 258 141 124 204 226 239 234 115 186 120 125 138 187 187 119 118 167 137 171 169 155 155 146 119 116 129 155
305 299 312 322 301 263 301 286 254 253 228 243 249 246 101 241 187 254 253 248 250 249 258 227 174 132 118 157 97 114 119 172 178 136 177 130 116 129 133 170 154 139 128 159 160
291 290 318 295 270 244 295 174 225 126 129 241 243 233 122 177 220 125 127 247 243 244 245 246 162 220 95 194 191 122 120 117 151 168 170 173 173 168 157 120 116 160 170 152 145
297 304 302 293 210 220 181 239 240 244 242 239 240 170 120 132 122 123 119 165 151 208 237 237 241 189 244 155 195 203 195 175 179 160 163 174 175 176 129 117 164 129 130 176 129
302 323 252 257 250 133 234 237 166 247 232 127 233 225 127 232 131 123 130 233 227 236 237 234 233 234 106 235 244 248 190 188 197 197 190 130 132 122 179 130 126 130 188 132 137
347 254 253 259 240 240 214 132 245 245 236 222 234 229 237 228 228 149 228 233 191 229 228 235 237 242 242 248 237 219 237 144 215 213 208 265 278 131 127 129 186 194 130 210 200
321 244 243 240 236 231 194 133 236 243 240 239 168 127 222 223 224 226 230 232 233 236 249 261 254 250 248 249 254 252 252 253 249 214 131 126 126 186 257 259 246 172 248 226 215
287 229 160 233 235 200 189 234 224 228 252 120 123 225 222 218 226 228 242 155 157 237 206 209 237 240 237 234 234 227 226 227 226 245 257 251 236 216 218 231 237 238 227 230 228
266 239 236 231 237 232 236 238 246 225 229 125 123 224 223 216 225 233 218 233 234 234 237 233 230 229 225 228 230 229 254 253 226 214 223 233 239 230 232 237 226 230 231 218 222
222 227 220 132 221 225 228 217 226 164 138 120 116 231 232 217 232 231 170 139 168 225 242 230 229 232 227 224 228 242 240 227 171 210 234 234 237 230 229 225 210 161 219 228 221
223 228 229 226 191 228 226 226 125 217 185 174 216 220 225 222 222 223 213 220 222 220 231 187 228 228 245 238 204 145 154 239 232 224 226 231 225 182 146 225 215 222 221 221 220
221 220 219 219 224 215 219 222 219 211 218 226 221 211 216 221 150 153 156 218 219 222 222 223 212 220 152 148 150 228 235 228 231 229 228 139 191 216 216 218 218 226 214 219 203
223 219 206 218 223 218 213 225 230 163 208 214 214 214 211 212 220 215 217 216 215 217 217 216 155 231 230 230 231 232 229 227 227 225 144 226 227 212 203 207 215 208 214 198 193
219 204 216 215 224 230 222 214 192 135 187 213 216 216 214 215 212 211 211 211 210 209 225 225 225 243 244 242 234 233 229 195 225 223 213 223 214 227 212 197 209 192 196 197 192
206 210 213 225 219 207 202 203 202 202 132 213 217 212 210 208 209 206 204 202 214 219 222 225 245 232 230 236 252 256 245 237 238 241 234 223 220 222 207 212 188 200 193 190 190
214 223 226 210 201 203 198 198 198 206 205 216 207 206 205 200 201 201 208 205 217 233 239 235 237 242 245 253 253 250 237 236 238 240 245 243 233 235 160 191 194 197 194 193 192
200 211 204 202 176 110 188 200 180 207 209 205 206 200 201 204 204 197 204 215 208 219 223 221 214 209 210 211 206 201 202 199 202 199 213 226 212 137 190 194 199 190 191 190 191
194 209 209 207 194 198 196 197 205 211 203 203 201 199 203 194 205 202 215 203 207 220 211 209 209 209 208 202 202 203 205 204 202 201 201 201 204 200 199 189 185 190 189 192 184
210 195 202 192 194 193 191 196 198 207 206 199 202 193 196 198 194 197 187 205 200 202 190 201 201 197 196 195 194 193 187 186 192 194 192 192 199 187 179 180 190 186 181 182 190
185 198 196 195 191 200 201 200 209 205 200 198 191 198 196 191 196 193 193 200 204 196 197 199 193 196 195 196 198 196 193 196 197 197 189 191 191 187 190 185 189 195 199 192 186
195 198 193 187 195 199 215 216 205 200 194 192 196 191 194 189 190 188 195 188 202 195 201 197 191 190 187 188 189 187 190 186 185 182 182 182 182 185 179 203 197 189 182 181 186
178 192 186 198 203 193 224 207 200 198 193 193 193 191 194 191 190 193 187 193 194 190 194 193 189 189 191 189 189 192 188 187 186 187 190 196 194 194 200 187 181 187 185 180 184
187 190 201 199 186 223 209 201 198 196 193 196 194 190 193 194 197 194 189 189 185 181 193 189 187 187 189 188 187 185 201 199 211 201 204 203 203 195 189 179 185 180 174 193 187
186 188 182 189 201 216 202 202 199 198 196 189 196 193 187 190 191 195 197 196 188 186 186 189 190 190 190 191 194 194 196 198 210 214 187 193 191 191 185 181 179 161 170 176 179
195 192 203 194 217 212 201 200 197 197 197 190 197 189 195 196 188 190 191 196 197 192 191 197 193 188 193 193 195 196 203 204 202 204 196 196 194 190 187 186 187 182 178 184 177
Wind_Speed
43 40 40 35 35 40 39 33 42 46 47 47 52 50 49 54 57 41 65 57 44 39 41 45 46 53 61 44 43 71 106 37 69 55 71 75 35 48 48 53 50 71 68 82 64
41 45 29 40 29 25 33 40 34 41 26 28 44 35 38 44 38 54 59 64 42 64 45 49 54 44 62 49 92 48 71 49 81 85 70 81 56 49 66 43 53 64 68 59 57
32 30 27 22 23 21 16 20 39 36 38 39 38 52 39 43 44 48 53 46 47 63 76 84 90 38 101 52 51 56 104 103 45 45 79 61 87 85 76 80 77 54 53 73 82
31 25 23 15 18 24 18 26 33 34 35 36 34 35 31 35 42 46 50 52 55 60 61 80 65 49 49 73 30 44 47 91 89 59 88 57 47 61 66 90 75 75 66 82 87
27 24 20 16 22 24 21 27 30 32 30 32 33 32 35 31 36 37 38 47 50 51 56 62 56 82 29 100 106 47 46 45 65 72 78 88 90 87 80 53 53 81 101 84 85
29 21 16 17 24 24 22 25 26 28 28 29 31 35 33 34 34 38 38 40 42 48 53 57 61 52 67 43 97 112 111 91 95 81 86 93 96 100 60 53 99 63 64 113 70
20 16 24 26 25 28 23 25 36 26 25 34 28 28 35 32 37 38 43 39 42 46 49 53 57 61 27 67 63 63 89 91 106 111 113 56 59 54 115 61 61 64 117 70 77
15 23 24 26 25 25 23 30 23 24 24 24 27 26 27 29 30 39 32 35 41 41 43 47 49 50 50 51 56 71 60 47 95 90 93 53 34 60 56 61 102 115 67 37 112
22 24 24 26 25 25 22 29 22 22 23 24 24 29 25 26 28 29 30 32 33 35 35 34 34 35 37 38 38 40 43 47 51 39 53 52 54 44 32 36 41 70 32 58 63
29 25 25 23 23 21 21 22 22 21 22 27 26 22 23 24 25 26 26 36 35 30 32 34 33 33 33 34 36 38 40 43 46 44 36 40 44 59 62 50 39 31 45 40 37
35 27 24 23 23 23 23 24 26 25 25 29 27 21 24 22 24 24 22 24 25 26 28 28 29 31 32 35 38 40 30 31 46 47 53 48 37 44 40 33 42 33 34 52 41
24 25 24 26 22 22 24 25 20 22 23 25 26 22 23 22 21 21 29 33 30 25 21 28 28 28 31 31 29 27 29 34 48 41 35 36 32 36 36 37 41 57 42 33 35
26 27 26 25 20 24 25 25 27 20 24 23 20 22 22 20 22 22 18 22 23 22 19 28 22 23 20 24 31 45 47 26 30 35 34 32 35 43 54 34 39 32 34 34 33
28 26 24 23 25 23 24 24 24 21 20 24 24 20 20 23 28 29 30 20 18 17 18 19 22 23 42 43 45 24 23 25 27 29 27 51 39 31 35 31 30 29 32 32 38
31 29 24 26 25 22 21 25 29 24 23 22 22 22 20 21 18 17 15 13 13 13 15 17 36 18 20 22 22 23 23 25 28 28 54 30 34 23 39 37 32 29 33 42 48
31 26 27 25 29 31 30 27 26 28 24 23 23 23 20 18 17 14 12 11 13 16 13 14 16 15 18 20 24 25 25 35 28 28 31 26 38 22 29 42 29 45 43 42 46
27 28 28 32 35 27 25 24 23 21 31 21 20 20 17 15 12 12 13 16 13 13 13 13 9 13 14 14 15 21 23 24 27 29 31 32 40 22 34 33 42 38 44 49 52
33 33 34 35 28 29 22 21 20 20 19 20 20 19 16 16 15 17 14 14 9 6 3 4 2 3 4 7 7 8 12 15 19 24 26 34 33 24 45 40 39 37 43 48 51
32 34 35 32 31 30 23 23 20 21 22 22 19 19 17 15 15 17 12 9 10 7 5 4 6 10 8 7 11 16 17 19 21 24 23 22 24 47 37 41 37 41 43 46 49
33 36 37 38 29 28 24 21 21 24 23 22 21 20 17 20 13 12 9 13 10 6 8 8 8 8 10 14 14 14 15 19 21 26 29 30 31 31 34 40 46 47 45 49 49
40 35 36 31 29 26 24 24 23 26 24 23 22 22 20 16 18 17 21 13 16 14 23 12 12 15 17 18 20 20 27 31 29 30 31 38 37 34 42 43 45 49 48 56 56
35 38 36 32 30 28 27 25 28 28 26 25 25 20 21 23 19 20 19 17 15 18 17 15 21 18 21 22 21 22 27 30 31 31 35 37 47 43 46 44 45 47 46 52 58
39 39 35 31 29 26 29 31 32 30 28 27 24 27 25 26 24 25 20 23 17 21 18 20 25 24 28 29 28 28 29 35 38 43 46 46 51 51 50 49 50 52 57 63 64
36 38 32 32 31 28 33 34 34 32 31 30 30 31 27 27 27 23 26 22 22 24 24 26 29 30 30 32 33 32 36 40 42 46 51 50 49 50 48 48 56 55 61 65 68
39 37 34 35 31 34 34 36 35 34 33 32 32 33 29 25 23 25 28 26 28 32 27 31 34 36 36 37 38 39 36 39 36 37 38 47 45 46 51 59 59 61 68 65 72
39 37 33 32 31 36 36 38 36 36 35 33 31 34 34 32 29 26 25 26 29 31 33 34 37 39 39 41 40 43 41 41 37 36 45 44 48 48 53 60 62 65 71 75 79
40 34 33 32 35 39 37 39 36 36 35 34 33 37 35 33 35 31 29 28 28 31 34 33 36 40 41 43 44 43 44 43 41 39 41 45 46 51 57 62 63 69 76 78 81
Wind_Direction
273 253 272 265 256 255 244 253 240 236 233 253 244 240 232 242 234 251 233 250 246 249 257 256 251 252 250 261 264 256 254 274 266 270 259 267 288 281 284 284 289 277 279 289 295
274 271 263 262 242 261 241 234 238 231 234 246 232 244 248 249 250 232 236 230 248 237 251 251 255 257 251 260 250 268 255 267 263 263 265 269 274 282 278 295 292 287 284 297 302
266 243 277 256 246 255 233 212 223 232 229 231 233 244 232 229 230 227 229 241 246 238 234 234 238 260 241 259 263 263 255 257 276 272 268 271 274 273 265 278 272 295 300 288 286
283 280 271 257 239 222 214 218 221 222 227 228 227 227 245 228 237 227 226 228 229 234 231 235 242 256 260 249 278 277 268 262 264 268 269 270 284 271 274 281 281 277 289 282 285
277 269 261 229 214 220 193 237 225 236 235 220 223 225 242 238 230 249 250 225 229 232 234 236 251 239 270 240 245 262 264 267 264 268 270 272 272 275 275 289 294 278 282 285 288
276 258 230 204 216 222 231 214 217 215 218 219 221 233 245 244 249 250 255 246 246 235 231 234 236 244 243 260 244 245 248 255 258 264 265 269 272 272 281 291 278 291 290 278 292
254 231 204 197 197 235 211 210 240 206 214 244 217 221 243 221 242 250 252 229 231 231 233 236 239 241 265 246 250 252 249 254 255 257 261 272 274 285 267 284 292 289 274 291 291
241 195 194 190 195 194 212 248 194 197 202 219 214 215 211 217 223 246 230 230 241 237 240 242 245 248 249 250 249 249 253 275 255 258 260 264 256 280 287 287 271 272 290 284 278
136 190 187 184 188 194 212 248 196 186 188 191 232 251 212 217 221 224 228 232 237 241 239 237 242 243 247 249 251 254 255 257 258 265 274 281 284 277 258 259 263 281 272 276 277
145 193 218 184 180 200 212 182 197 189 172 240 247 200 213 220 221 225 219 241 242 234 243 245 246 246 249 251 251 250 252 255 257 254 250 253 260 265 264 263 261 264 271 271 277
157 178 174 177 172 174 174 176 166 185 181 239 248 204 202 221 219 214 232 225 227 232 234 237 240 244 247 250 251 252 244 244 257 263 260 256 251 256 255 258 264 268 270 272 275
186 179 183 233 180 173 170 173 187 216 227 244 249 194 195 214 206 212 236 245 245 235 231 239 241 242 245 250 247 241 243 249 268 260 252 254 254 256 257 258 270 285 272 280 280
183 171 169 173 194 172 171 178 231 192 212 220 194 197 191 201 209 214 228 227 231 238 237 251 246 248 249 248 258 270 270 253 252 255 259 258 260 277 286 264 267 277 280 282 286
176 172 170 172 168 174 176 179 179 184 185 178 184 203 201 202 236 238 244 218 223 229 233 237 243 242 261 266 270 264 267 264 266 266 265 283 279 263 275 274 275 278 275 280 280
172 166 179 172 167 174 176 171 164 209 186 187 192 197 201 203 198 205 206 217 234 247 252 258 267 265 266 267 267 268 269 268 274 271 286 276 279 252 270 277 279 275 277 280 280
169 179 173 175 170 163 159 168 189 233 205 190 190 189 192 193 199 209 213 220 230 237 259 259 261 274 274 270 269 268 269 276 271 270 268 275 269 267 252 269 277 281 280 280 283
179 177 174 167 159 167 181 183 187 191 241 189 183 185 188 198 201 213 222 228 242 250 253 257 245 253 263 271 274 268 267 274 277 275 275 273 270 270 266 263 281 274 285 285 286
173 170 168 164 177 178 189 194 198 192 197 184 189 194 197 203 210 221 229 235 247 256 254 253 290 331 338 351 334 310 288 286 284 283 279 273 276 274 287 278 278 281 278 282 286
184 174 175 180 193 243 196 194 213 195 194 195 197 199 203 210 220 229 237 242 250 252 248 249 259 270 275 279 280 276 278 275 282 280 289 285 273 287 280 287 293 290 289 288 294
187 180 178 178 191 191 194 203 200 196 199 199 201 205 208 222 230 236 231 245 243 216 232 247 255 263 272 272 276 287 294 289 285 286 286 283 285 283 284 292 293 296 296 299 296
181 185 180 191 194 195 199 205 209 200 201 205 206 217 217 224 231 236 247 241 248 243 267 254 257 263 268 270 274 275 279 282 282 283 282 290 286 282 288 294 296 296 302 298 299
196 188 191 195 200 204 207 209 203 202 205 206 220 215 222 230 234 239 249 253 248 255 260 260 264 265 271 274 284 283 285 293 292 289 287 287 288 290 294 294 291 294 295 291 290
191 191 197 203 207 206 209 200 203 205 211 217 217 224 227 232 237 245 245 256 254 262 265 265 269 273 275 276 277 277 279 285 287 287 287 288 290 292 298 299 300 299 298 300 301
207 200 205 207 212 210 199 200 207 209 215 219 223 229 232 236 238 245 252 258 263 270 274 274 275 278 279 279 284 286 288 288 288 288 290 289 286 291 294 293 292 296 299 301 301
204 206 205 210 216 206 203 207 211 214 222 222 229 235 238 239 240 245 250 255 262 268 274 275 277 280 282 283 285 285 285 288 290 282 285 289 291 293 295 298 299 301 302 303 301
212 211 214 216 214 207 211 212 216 219 224 232 235 238 246 243 246 251 256 258 260 268 272 276 279 282 285 286 286 289 290 291 295 295 280 283 288 291 295 294 298 304 302 303 304
213 216 220 221 213 210 216 217 221 225 228 236 236 242 243 245 250 252 256 262 267 268 271 275 277 284 285 288 290 291 298 296 291 291 290 291 294 292 295 297 299 298 300 301 306